Regional Weather Roundup
Issued by NWS Sioux Falls, SD

Home | Current Version | Previous Version | Text Only | Print | Product List | Glossary On
Versions: 1 2 3 4 5 6 7 8 9 10 11 12 13 14 15 16 17 18 19 20 21 22 23 24 25 26 27 28 29 30 31 32 33 34 35 36 37 38 39 40 41 42 43 44 45 46 47 48 49 50
000
ASUS43 KFSD 301510
RWRFSD

WEATHER ROUNDUP FOR SE SOUTH DAKOTA/SW MINNESOTA/NW IOWA
NATIONAL WEATHER SERVICE SIOUX FALLS SD
1000 AM CDT SAT MAY 30 2015

NOTE: "FAIR" INDICATES FEW OR NO CLOUDS BELOW 12,000 FEET WITH NO
SIGNIFICANT WEATHER AND OR OBSTRUCTIONS TO VISIBILITY.


SDZ038>040-050-052>070-301600-
SOUTHEAST SOUTH DAKOTA

CITY           SKY/WX    TMP DP  RH WIND       PRES   REMARKS
BROOKINGS      SUNNY     46  37  71 N14       30.30S
CHAMBERLAIN    SUNNY     46  35  64 NE9       30.34F
HURON          SUNNY     47  35  63 N14       30.34S
MADISON        FAIR      46  45  93 NE13G18   30.29R
MITCHELL       SUNNY     49  40  71 N15       30.32F
SIOUX FALLS    MOSUNNY   50  41  71 NE15      30.28R
WINNER         FAIR      49  33  54 NE12      30.34S
YANKTON        SUNNY     52  39  62 N13       30.28S
$$

MNZ071-072-080-081-089-090-097-098-301600-
SOUTHWEST MINNESOTA

CITY           SKY/WX    TMP DP  RH WIND       PRES   REMARKS
FAIRMONT       CLOUDY    52  39  62 N22       30.20S
JACKSON        PTSUNNY   50  43  76 N16G26    30.22S
LUVERNE        MOSUNNY   50  41  71 N15G21    30.26S
MARSHALL       PTSUNNY   48  37  66 N15       30.28R
MONTEVIDEO     MOSUNNY   52  41  66 NE13G20   30.30S
PIPESTONE      MOSUNNY   46  39  76 NE16      30.26S
REDWOOD FALLS  MOSUNNY   52  40  63 N12G22    30.26R
TRACY          PTSUNNY   51  43  75 N17       30.27S
WINDOM         MOSUNNY   52  43  71 N17G25    30.24S
WORTHINGTON    PTSUNNY   50  39  66 N17       30.23F
$$

IAZ001>003-012>014-020>022-031-032-NEZ013-014-SDZ071-301600-
NORTHWEST IOWA

CITY           SKY/WX    TMP DP  RH WIND       PRES   REMARKS
CHEROKEE       MOSUNNY   52  44  75 N13G22    30.21S
DENISON        CLOUDY    52  50  93 NE14G22   30.17S
ESTHERVILLE    CLOUDY    50  43  77 N20G29    30.19S
LE MARS        CLOUDY    52  43  71 N17       30.25S
ORANGE CITY    MOSUNNY   50  43  76 N14G22    30.23S
SHELDON        PTSUNNY   50  45  81 N18G24    30.22S
SIOUX CITY     CLOUDY    53  42  66 N20       30.23S
SPENCER        CLOUDY    53  42  66 N20       30.21R
STORM LAKE     PTSUNNY   52  43  71 NE22G29   30.20R
$$

ABBREVIATIONS USED IN REMARKS
   TC - TEMPERATURE IN CELSIUS
  WCI - WIND CHILL INDEX
   HX - HEAT INDEX
  VSB - VISIBILITY



USA.gov is the U.S. government's official web portal to all federal, state and local government web resources and services.